Regional Weather Roundup
Issued by NWS Huntsville, AL

Home | Current Version | Previous Version | Text Only | Print | Product List | Glossary On
Versions: 1 2 3 4 5 6 7 8 9 10 11 12 13 14 15 16 17 18 19 20 21 22 23 24 25 26 27 28 29 30 31 32 33 34 35 36 37 38 39 40 41 42 43 44 45 46 47 48 49 50
000
ASUS44 KHUN 180110
RWRHUN

WEATHER ROUNDUP FOR THE TENNESSEE VALLEY
NATIONAL WEATHER SERVICE HUNTSVILLE AL
700 PM CST WED DEC 17 2014

ALZ001>004-180200-
NORTHWEST ALABAMA

CITY           SKY/WX    TMP DP  RH WIND       PRES   REMARKS
SHOALS AIRPORT CLOUDY    42  34  73 CALM      30.26R
SHOALS TVA RES   N/A     39 N/A N/A MISG        N/A
$$

ALZ005>007-016-180200-
NORTH CENTRAL ALABAMA

CITY           SKY/WX    TMP DP  RH WIND       PRES   REMARKS
DECATUR AP     CLOUDY    38  33  82 N3        30.25S
HUNTSVILLE AP  CLOUDY    41  33  73 NE5       30.24S
HUN NWS/UAH      N/A     39  31  72 N2          N/A
MERIDIANVILLE  CLOUDY    34  30  86 N3        30.24R
REDSTONE ARSN  CLOUDY    37  34  87 N6        30.23F WCI  33
VINEMONT AP    FAIR      37  33  89 CALM      30.24S
$$

ALZ008>010-180200-
NORTHEAST ALABAMA

CITY           SKY/WX    TMP DP  RH WIND       PRES   REMARKS
ALBERTVILLE    CLOUDY    37  36  93 NW5       30.21R WCI  34
FORT PAYNE     MOCLDY    37  32  81 CALM      30.21S
SCOTTSBORO AP  MOCLDY    37  32  81 CALM      30.23F
VALLEY HEAD      N/A     39 N/A N/A MISG        N/A
$$

TNZ076-096-097-180200-
SOUTHEASTERN MIDDLE TENNESSEE

CITY           SKY/WX    TMP DP  RH WIND       PRES   REMARKS
TULLAHOMA      CLEAR     32  28  86 N5        30.24S WCI  27
WINCHESTER     CLEAR     34  30  86 N3        30.24R
$$

...SURROUNDING SITES...

CITY           SKY/WX    TMP DP  RH WIND       PRES   REMARKS
ATLANTA        MOCLDY    41  36  82 W8        30.18R
ANNISTON       MOCLDY    37  34  89 CALM      30.22S
BIRMINGHAM     PTCLDY    38  34  85 CALM      30.25S
CHATTANOOGA    MOCLDY    40  33  76 N6        30.23R
CORINTH        FAIR      41  34  75 N3        30.26S
DALTON         MOCLDY    39  36  87 CALM      30.21S
GADSDEN        MOCLDY    41  34  75 NW5       30.23S
GOLDEN TRNGL   CLOUDY    43  36  75 N5        30.22F
HALEYVILLE     FAIR      37  35  92 CALM      30.25S
JACKSON TN     MOCLDY    37  31  78 NE3       30.27F
LEWISBURG      FAIR      32  29  89 CALM      30.26R
MEMPHIS        CLOUDY    40  32  73 N5        30.27R
MURFREESBORO   FAIR      34  30  85 CALM      30.27R
NASHVILLE      MOCLDY    37  29  72 CALM      30.27S
OXFORD MS      FAIR      39  32  75 NE7       30.25S WCI  34
ROME           MOCLDY    41  36  82 N5        30.20S
SAVANNAH       CLEAR     37  32  81 CALM      30.26F
TUPELO         CLOUDY    42  35  76 NE6       30.25S
TUSCALOOSA     CLOUDY    42  36  79 CALM      30.24S
$$

...GULF COAST WEATHER...

CITY           SKY/WX    TMP DP  RH WIND       PRES   REMARKS
GULFPORT       PTCLDY    47  41  80 CALM      30.19S
PASCAGOULA     PTCLDY    40  39  97 CALM      30.21R
MOBILE         PTCLDY    43  41  93 CALM      30.21R
GULF SHORES    PTCLDY    43  41  91 CALM      30.20S
PENSACOLA      PTCLDY    45  42  89 CALM      30.20R
DESTIN         PTCLDY    52  44  74 CALM      30.20R
PANAMA CITY    PTCLDY    50  45  81 NW6       30.19S
APPALACHICOLA  PTCLDY    50  43  77 CALM      30.18S
$$



USA.gov is the U.S. government's official web portal to all federal, state and local government web resources and services.